| time (UTC) | temp F | wind direction | speed knots | gust knots | rain 1hr in | rain 24hr in | rain mn in | humidity % | barometer mb |
| 20260510023241 | 65 | 272 | 5.2 | 7.0 | 0.00 | 0.00 | 0.00 | 76 | |
| 20260510023039 | 65 | 285 | 5.2 | 7.0 | 0.00 | 0.00 | 0.00 | 75 | |
| 20260510022837 | 65 | 277 | 3.5 | 7.0 | 0.00 | 0.00 | 0.00 | 75 | |
| 20260510022633 | 65 | 262 | 6.1 | 7.0 | 0.00 | 0.00 | 0.00 | 75 | |
| 20260510022231 | 65 | 274 | 3.5 | 7.0 | 0.00 | 0.00 | 0.00 | 74 | |
| 20260510022030 | 65 | 278 | 3.5 | 7.0 | 0.00 | 0.00 | 0.00 | 74 | |
| 20260510021827 | 66 | 279 | 5.2 | 7.0 | 0.00 | 0.00 | 0.00 | 74 | |
| 20260510021626 | 66 | 271 | 5.2 | 7.8 | 0.00 | 0.00 | 0.00 | 73 | |
| 20260510021423 | 66 | 270 | 5.2 | 7.8 | 0.00 | 0.00 | 0.00 | 73 | |
| 20260510021222 | 66 | 274 | 7.0 | 7.0 | 0.00 | 0.00 | 0.00 | 73 | |
| 20260510021019 | 66 | 271 | 3.5 | 7.0 | 0.00 | 0.00 | 0.00 | 73 | |
| 20260510020818 | 66 | 279 | 3.5 | 7.8 | 0.00 | 0.00 | 0.00 | 72 | |
| 20260510020616 | 66 | 265 | 4.3 | 7.8 | 0.00 | 0.00 | 0.00 | 72 | |
| 20260510020414 | 66 | 285 | 5.2 | 7.8 | 0.00 | 0.00 | 0.00 | 72 | |
| 20260510020010 | 67 | 270 | 5.2 | 7.0 | 0.00 | 0.00 | 0.00 | 72 | |
| 20260510015809 | 67 | 271 | 5.2 | 7.8 | 0.00 | 0.00 | 0.00 | 71 | |
| 20260510015605 | 67 | 285 | 5.2 | 7.8 | 0.00 | 0.00 | 0.00 | 71 | |
| 20260510015403 | 67 | 270 | 6.1 | 7.8 | 0.00 | 0.00 | 0.00 | 71 | |
| 20260510015203 | 67 | 277 | 5.2 | 8.7 | 0.00 | 0.00 | 0.00 | 71 | |
| 20260510014557 | 68 | 274 | 5.2 | 7.0 | 0.00 | 0.00 | 0.00 | 70 | |
| 20260510013953 | 68 | 284 | 5.2 | 7.8 | 0.00 | 0.00 | 0.00 | 69 | |
| 20260510013749 | 68 | 265 | 5.2 | 7.8 | 0.00 | 0.00 | 0.00 | 68 | |
| 20260510013548 | 68 | 295 | 5.2 | 7.8 | 0.00 | 0.00 | 0.00 | 68 | |
| 20260510013346 | 69 | 281 | 5.2 | 7.8 | 0.00 | 0.00 | 0.00 | 68 | |
| 20260510012940 | 69 | 271 | 7.0 | 7.0 | 0.00 | 0.00 | 0.00 | 67 | |
| 20260510012739 | 69 | 270 | 7.0 | 8.7 | 0.00 | 0.00 | 0.00 | 67 | |
| 20260510012536 | 69 | 248 | 5.2 | 8.7 | 0.00 | 0.00 | 0.00 | 67 | |
| 20260510012336 | 69 | 267 | 7.0 | 8.7 | 0.00 | 0.00 | 0.00 | 66 | |
| 20260510012134 | 69 | 291 | 7.0 | 7.8 | 0.00 | 0.00 | 0.00 | 66 | |
| 20260510011932 | 69 | 281 | 7.0 | 7.8 | 0.00 | 0.00 | 0.00 | 65 | |
| 20260510011730 | 70 | 262 | 5.2 | 8.7 | 0.00 | 0.00 | 0.00 | 65 | |
| 20260510011528 | 70 | 139 | 3.5 | 8.7 | 0.00 | 0.00 | 0.00 | 65 | |
| 20260510011326 | 70 | 271 | 5.2 | 8.7 | 0.00 | 0.00 | 0.00 | 65 | |
| 20260510010921 | 70 | 279 | 3.5 | 10.4 | 0.00 | 0.00 | 0.00 | 64 | |
| 20260510010721 | 70 | 277 | 5.2 | 8.7 | 0.00 | 0.00 | 0.00 | 64 | |
| 20260510010518 | 71 | 268 | 7.0 | 8.7 | 0.00 | 0.00 | 0.00 | 63 | |
| 20260510010317 | 71 | 270 | 6.1 | 9.6 | 0.00 | 0.00 | 0.00 | 62 | |
| 20260510010113 | 71 | 255 | 6.1 | 9.6 | 0.00 | 0.00 | 0.00 | 63 | |
| 20260510005913 | 71 | 279 | 7.0 | 9.6 | 0.00 | 0.00 | 0.00 | 62 | |
| 20260510005711 | 71 | 279 | 3.5 | 10.4 | 0.00 | 0.00 | 0.00 | 64 | |
| 20260510005307 | 70 | 285 | 7.8 | 11.3 | 0.00 | 0.00 | 0.00 | 64 | |
| 20260510005103 | 70 | 264 | 7.8 | 11.3 | 0.00 | 0.00 | 0.00 | 64 | |
| 20260510004903 | 70 | 271 | 5.2 | 11.3 | 0.00 | 0.00 | 0.00 | 63 | |
| 20260510004659 | 70 | 271 | 7.8 | 10.4 | 0.00 | 0.00 | 0.00 | 63 | |
| 20260510004257 | 70 | 272 | 7.0 | 10.4 | 0.00 | 0.00 | 0.00 | 63 | |
| 20260510004055 | 71 | 274 | 7.8 | 10.4 | 0.00 | 0.00 | 0.00 | 62 | |
| 20260510003853 | 71 | 270 | 5.2 | 10.4 | 0.00 | 0.00 | 0.00 | 62 | |
| 20260510003651 | 71 | 254 | 7.0 | 11.3 | 0.00 | 0.00 | 0.00 | 62 | |
| 20260510003448 | 71 | 257 | 5.2 | 11.3 | 0.00 | 0.00 | 0.00 | 62 | |
| 20260510003247 | 71 | 281 | 7.8 | 12.2 | 0.00 | 0.00 | 0.00 | 61 | |
| 20260510003045 | 71 | 274 | 7.0 | 12.2 | 0.00 | 0.00 | 0.00 | 61 | |
| 20260510002642 | 72 | 279 | 8.7 | 12.2 | 0.00 | 0.00 | 0.00 | 61 | |
| 20260510002439 | 72 | 265 | 7.8 | 12.2 | 0.00 | 0.00 | 0.00 | 61 | |
| 20260510002036 | 72 | 271 | 7.0 | 9.6 | 0.00 | 0.00 | 0.00 | 60 | |
| 20260510001834 | 72 | 278 | 5.2 | 9.6 | 0.00 | 0.00 | 0.00 | 60 | |
| 20260510001226 | 72 | 264 | 7.0 | 10.4 | 0.00 | 0.00 | 0.00 | 60 | |
| 20260510001026 | 72 | 255 | 7.8 | 10.4 | 0.00 | 0.00 | 0.00 | 60 | |
| 20260510000622 | 73 | 262 | 7.8 | 12.2 | 0.00 | 0.00 | 0.00 | 60 | |
| 20260510000219 | 73 | 257 | 9.6 | 9.6 | 0.00 | 0.00 | 0.00 | 58 | |
| 20260510000016 | 73 | 291 | 3.5 | 9.6 | 0.00 | 0.00 | 0.00 | 58 | |
| 20260509235814 | 74 | 279 | 6.1 | 9.6 | 0.00 | 0.00 | 0.00 | 58 | |
| 20260509235006 | 73 | 258 | 4.3 | 12.2 | 0.00 | 0.00 | 0.00 | 58 | |
| 20260509234804 | 73 | 271 | 8.7 | 11.3 | 0.00 | 0.00 | 0.00 | 59 | |
| 20260509234400 | 73 | 267 | 9.6 | 11.3 | 0.00 | 0.00 | 0.00 | 59 | |
| 20260509234157 | 73 | 277 | 10.4 | 11.3 | 0.00 | 0.00 | 0.00 | 58 | |
| 20260509233553 | 73 | 264 | 7.8 | 11.3 | 0.00 | 0.00 | 0.00 | 58 | |
| 20260509233149 | 73 | 272 | 7.8 | 11.3 | 0.00 | 0.00 | 0.00 | 58 | |
| 20260509232947 | 73 | 267 | 7.8 | 11.3 | 0.00 | 0.00 | 0.00 | 57 | |
| 20260509232745 | 74 | 262 | 7.0 | 11.3 | 0.00 | 0.00 | 0.00 | 58 | |
| 20260509232543 | 73 | 257 | 6.1 | 11.3 | 0.00 | 0.00 | 0.00 | 58 | |
| 20260509232341 | 74 | 264 | 6.1 | 11.3 | 0.00 | 0.00 | 0.00 | 57 | |
| 20260509232139 | 74 | 255 | 7.8 | 11.3 | 0.00 | 0.00 | 0.00 | 57 | |
| 20260509231937 | 73 | 274 | 5.2 | 11.3 | 0.00 | 0.00 | 0.00 | 56 | |
| 20260509231533 | 74 | 250 | 10.4 | 10.4 | 0.00 | 0.00 | 0.00 | 56 | |
| 20260509231331 | 74 | 261 | 1.7 | 10.4 | 0.00 | 0.00 | 0.00 | 57 | |
| 20260509231127 | 74 | 295 | 4.3 | 10.4 | 0.00 | 0.00 | 0.00 | 57 | |
| 20260509230927 | 74 | 267 | 5.2 | 10.4 | 0.00 | 0.00 | 0.00 | 56 | |
| 20260509230523 | 74 | 258 | 7.8 | 11.3 | 0.00 | 0.00 | 0.00 | 56 | |
| 20260509230321 | 74 | 251 | 6.1 | 11.3 | 0.00 | 0.00 | 0.00 | 57 | |
| 20260509230119 | 73 | 271 | 7.8 | 12.2 | 0.00 | 0.00 | 0.00 | 57 | |
| 20260509225917 | 74 | 253 | 8.7 | 12.2 | 0.00 | 0.00 | 0.00 | 57 | |
| 20260509225715 | 74 | 246 | 10.4 | 10.4 | 0.00 | 0.00 | 0.00 | 57 | |
| 20260509225513 | 74 | 277 | 7.0 | 10.4 | 0.00 | 0.00 | 0.00 | 57 | |
| 20260509225311 | 74 | 261 | 6.1 | 11.3 | 0.00 | 0.00 | 0.00 | 57 | |
| 20260509224907 | 74 | 274 | 7.0 | 11.3 | 0.00 | 0.00 | 0.00 | 56 | |
| 20260509224706 | 75 | 289 | 8.7 | 11.3 | 0.00 | 0.00 | 0.00 | 56 | |
| 20260509224504 | 75 | 271 | 8.7 | 11.3 | 0.00 | 0.00 | 0.00 | 56 | |
| 20260509224301 | 75 | 261 | 8.7 | 10.4 | 0.00 | 0.00 | 0.00 | 55 | |
| 20260509223857 | 75 | 267 | 11.3 | 10.4 | 0.00 | 0.00 | 0.00 | 56 | |
| 20260509223655 | 75 | 277 | 6.1 | 9.6 | 0.00 | 0.00 | 0.00 | 56 | |
| 20260509223454 | 75 | 268 | 7.0 | 9.6 | 0.00 | 0.00 | 0.00 | 57 | |
| 20260509223049 | 75 | 262 | 7.8 | 11.3 | 0.00 | 0.00 | 0.00 | 56 | |
| 20260509222846 | 74 | 248 | 7.0 | 11.3 | 0.00 | 0.00 | 0.00 | 58 | |
| 20260509222242 | 73 | 247 | 10.4 | 12.2 | 0.00 | 0.00 | 0.00 | 59 | |
| 20260509222039 | 73 | 281 | 7.0 | 12.2 | 0.00 | 0.00 | 0.00 | 58 | |
| 20260509221839 | 74 | 278 | 10.4 | 12.2 | 0.00 | 0.00 | 0.00 | 59 | |
| 20260509221636 | 73 | 291 | 8.7 | 13.0 | 0.00 | 0.00 | 0.00 | 58 | |
| 20260509221438 | 74 | 270 | 7.0 | 13.0 | 0.00 | 0.00 | 0.00 | 57 | |
| 20260509221232 | 73 | 271 | 10.4 | 13.0 | 0.00 | 0.00 | 0.00 | 58 | |
| 20260509221030 | 75 | 278 | 8.7 | 13.0 | 0.00 | 0.00 | 0.00 | 57 | |
| 20260509220829 | 74 | 243 | 8.7 | 13.0 | 0.00 | 0.00 | 0.00 | 58 | |
| 20260509220627 | 74 | 268 | 6.1 | 11.3 | 0.00 | 0.00 | 0.00 | 59 | |
| 20260509220425 | 74 | 258 | 10.4 | 11.3 | 0.00 | 0.00 | 0.00 | 57 | |
| 20260509220223 | 74 | 270 | 8.7 | 12.2 | 0.00 | 0.00 | 0.00 | 57 | |
| 20260509215819 | 74 | 289 | 7.8 | 11.3 | 0.00 | 0.00 | 0.00 | 58 | |
| 20260509215415 | 74 | 271 | 3.5 | 11.3 | 0.00 | 0.00 | 0.00 | 56 | |
| 20260509215212 | 75 | 243 | 7.8 | 13.9 | 0.00 | 0.00 | 0.00 | 57 | |
| 20260509215009 | 74 | 261 | 7.0 | 13.9 | 0.00 | 0.00 | 0.00 | 59 | |
| 20260509214807 | 73 | 274 | 11.3 | 11.3 | 0.00 | 0.00 | 0.00 | 58 | |
| 20260509214608 | 73 | 262 | 5.2 | 11.3 | 0.00 | 0.00 | 0.00 | 58 | |
| 20260509214405 | 74 | 258 | 10.4 | 11.3 | 0.00 | 0.00 | 0.00 | 58 | |
| 20260509213801 | 74 | 286 | 7.0 | 13.9 | 0.00 | 0.00 | 0.00 | 58 | |
| 20260509213556 | 74 | 257 | 9.6 | 13.9 | 0.00 | 0.00 | 0.00 | 57 | |
| 20260509212749 | 73 | 264 | 10.4 | 12.2 | 0.00 | 0.00 | 0.00 | 57 | |
| 20260509211538 | 75 | 281 | 7.8 | 10.4 | 0.00 | 0.00 | 0.00 | 57 | |
| 20260509211336 | 75 | 246 | 6.1 | 10.4 | 0.00 | 0.00 | 0.00 | 56 | |
| 20260509211133 | 75 | 281 | 7.0 | 13.0 | 0.00 | 0.00 | 0.00 | 58 | |
| 20260509210930 | 75 | 264 | 1.7 | 13.0 | 0.00 | 0.00 | 0.00 | 58 | |
| 20260509210528 | 74 | 234 | 7.0 | 14.8 | 0.00 | 0.00 | 0.00 | 59 | |
| 20260509210326 | 73 | 262 | 8.7 | 14.8 | 0.00 | 0.00 | 0.00 | 59 | |
| 20260509205922 | 75 | 267 | 5.2 | 11.3 | 0.00 | 0.00 | 0.00 | 58 | |
| 20260509205720 | 74 | 278 | 5.2 | 13.0 | 0.00 | 0.00 | 0.00 | 59 | |
| 20260509205517 | 74 | 258 | 7.0 | 13.0 | 0.00 | 0.00 | 0.00 | 59 | |
| 20260509205316 | 74 | 257 | 7.0 | 13.0 | 0.00 | 0.00 | 0.00 | 59 | |
| 20260509205114 | 74 | 270 | 4.3 | 13.0 | 0.00 | 0.00 | 0.00 | 57 | |
| 20260509204912 | 74 | 275 | 3.5 | 13.0 | 0.00 | 0.00 | 0.00 | 58 | |
| 20260509204710 | 74 | 255 | 8.7 | 11.3 | 0.00 | 0.00 | 0.00 | 59 | |
| 20260509204509 | 74 | 298 | 4.3 | 11.3 | 0.00 | 0.00 | 0.00 | 59 | |
| 20260509204103 | 74 | 260 | 8.7 | 12.2 | 0.00 | 0.00 | 0.00 | 58 | |
| 20260509203903 | 74 | 258 | 7.8 | 12.2 | 0.00 | 0.00 | 0.00 | 59 | |
| 20260509203459 | 74 | 274 | 4.3 | 12.2 | 0.00 | 0.00 | 0.00 | 59 | |
| 20260509203257 | 74 | 262 | 9.6 | 12.2 | 0.00 | 0.00 | 0.00 | 59 | |
| 20260509203055 | 74 | 264 | 8.7 | 12.2 | 0.00 | 0.00 | 0.00 | 59 | |
| 20260509202853 | 74 | 248 | 8.7 | 12.2 | 0.00 | 0.00 | 0.00 | 59 | |
| 20260509202651 | 74 | 278 | 1.7 | 12.2 | 0.00 | 0.00 | 0.00 | 60 | |
| 20260509202247 | 74 | 262 | 10.4 | 13.0 | 0.00 | 0.00 | 0.00 | 58 | |
| 20260509202045 | 74 | 251 | 7.0 | 13.0 | 0.00 | 0.00 | 0.00 | 59 | |
| 20260509201843 | 73 | 282 | 4.3 | 13.0 | 0.00 | 0.00 | 0.00 | 60 | |
| 20260509201641 | 73 | 312 | 7.0 | 13.0 | 0.00 | 0.00 | 0.00 | 60 | |
| 20260509201439 | 73 | 281 | 12.2 | 13.0 | 0.00 | 0.00 | 0.00 | 60 | |
| 20260509201237 | 73 | 233 | 5.2 | 11.3 | 0.00 | 0.00 | 0.00 | 61 | |
| 20260509201035 | 73 | 255 | 7.8 | 11.3 | 0.00 | 0.00 | 0.00 | 59 | |
| 20260509200833 | 73 | 271 | 9.6 | 11.3 | 0.00 | 0.00 | 0.00 | 61 | |
| 20260509200631 | 72 | 277 | 8.7 | 10.4 | 0.00 | 0.00 | 0.00 | 58 | |
| 20260509200227 | 73 | 261 | 8.7 | 11.3 | 0.00 | 0.00 | 0.00 | 60 | |
| 20260509195822 | 73 | 265 | 7.8 | 11.3 | 0.00 | 0.00 | 0.00 | 59 | |
| 20260509195419 | 73 | 243 | 5.2 | 11.3 | 0.00 | 0.00 | 0.00 | 59 | |
| 20260509195218 | 73 | 260 | 6.1 | 9.6 | 0.00 | 0.00 | 0.00 | 58 | |
| 20260509195016 | 73 | 275 | 7.0 | 9.6 | 0.00 | 0.00 | 0.00 | 59 | |
| 20260509194815 | 73 | 247 | 0.9 | 9.6 | 0.00 | 0.00 | 0.00 | 58 | |
| 20260509194612 | 73 | 261 | 7.0 | 9.6 | 0.00 | 0.00 | 0.00 | 59 | |
| 20260509194410 | 73 | 73 | 0.0 | 9.6 | 0.00 | 0.00 | 0.00 | 58 | |
| 20260509194004 | 72 | 272 | 2.6 | 10.4 | 0.00 | 0.00 | 0.00 | 61 | |
| 20260509193804 | 71 | 277 | 6.1 | 8.7 | 0.00 | 0.00 | 0.00 | 61 | |
| 20260509193602 | 72 | 274 | 6.1 | 8.7 | 0.00 | 0.00 | 0.00 | 60 | |
| 20260509193400 | 72 | 270 | 3.5 | 8.7 | 0.00 | 0.00 | 0.00 | 59 | |
| 20260509193158 | 72 | 261 | 8.7 | 11.3 | 0.00 | 0.00 | 0.00 | 59 | |
| 20260509192956 | 72 | 272 | 6.1 | 11.3 | 0.00 | 0.00 | 0.00 | 60 | |
| 20260509192754 | 72 | 268 | 7.0 | 9.6 | 0.00 | 0.00 | 0.00 | 61 | |
| 20260509192550 | 72 | 281 | 8.7 | 9.6 | 0.00 | 0.00 | 0.00 | 58 | |
| 20260509192348 | 72 | 254 | 1.7 | 9.6 | 0.00 | 0.00 | 0.00 | 63 | |
| 20260509192148 | 71 | 257 | 0.0 | 8.7 | 0.00 | 0.00 | 0.00 | 64 | |
| 20260509191946 | 71 | 277 | 0.9 | 8.7 | 0.00 | 0.00 | 0.00 | 62 | |
| 20260509191742 | 70 | 285 | 3.5 | 9.6 | 0.00 | 0.00 | 0.00 | 64 | |
| 20260509191542 | 70 | 262 | 6.1 | 9.6 | 0.00 | 0.00 | 0.00 | 62 | |
| 20260509191340 | 71 | 289 | 2.6 | 9.6 | 0.00 | 0.00 | 0.00 | 63 | |
| 20260509190935 | 70 | 277 | 7.8 | 9.6 | 0.00 | 0.00 | 0.00 | 63 | |
| 20260509190331 | 70 | 277 | 7.0 | 9.6 | 0.00 | 0.00 | 0.00 | 66 | |
| 20260509190129 | 69 | 262 | 5.2 | 9.6 | 0.00 | 0.00 | 0.00 | 67 | |
| 20260509185925 | 69 | 264 | 7.8 | 9.6 | 0.00 | 0.00 | 0.00 | 67 | |
| 20260509185724 | 69 | 261 | 5.2 | 10.4 | 0.00 | 0.00 | 0.00 | 67 | |
| 20260509185523 | 69 | 270 | 7.8 | 10.4 | 0.00 | 0.00 | 0.00 | 68 | |
| 20260509185321 | 69 | 237 | 2.6 | 10.4 | 0.00 | 0.00 | 0.00 | 68 | |
| 20260509185117 | 69 | 260 | 7.0 | 9.6 | 0.00 | 0.00 | 0.00 | 68 | |
| 20260509184917 | 68 | 262 | 7.8 | 9.6 | 0.00 | 0.00 | 0.00 | 70 | |
| 20260509184715 | 68 | 281 | 7.0 | 9.6 | 0.00 | 0.00 | 0.00 | 70 | |
| 20260509184511 | 68 | 289 | 6.1 | 9.6 | 0.00 | 0.00 | 0.00 | 70 | |
| 20260509184311 | 67 | 317 | 3.5 | 9.6 | 0.00 | 0.00 | 0.00 | 72 | |
| 20260509184108 | 68 | 260 | 6.1 | 9.6 | 0.00 | 0.00 | 0.00 | 72 | |
| 20260509183907 | 67 | 278 | 6.1 | 9.6 | 0.00 | 0.00 | 0.00 | 72 | |
| 20260509183504 | 67 | 262 | 6.1 | 8.7 | 0.00 | 0.00 | 0.00 | 73 | |
| 20260509183302 | 66 | 323 | 2.6 | 9.6 | 0.00 | 0.00 | 0.00 | 73 | |
| 20260509183100 | 67 | 295 | 4.3 | 9.6 | 0.00 | 0.00 | 0.00 | 75 | |
| 20260509182858 | 66 | 282 | 3.5 | 9.6 | 0.00 | 0.00 | 0.00 | 74 | |
| 20260509182656 | 66 | 277 | 6.1 | 9.6 | 0.00 | 0.00 | 0.00 | 75 | |
| 20260509182452 | 67 | 284 | 8.7 | 9.6 | 0.00 | 0.00 | 0.00 | 75 | |
| 20260509182252 | 66 | 277 | 6.1 | 10.4 | 0.00 | 0.00 | 0.00 | 75 | |
| 20260509182050 | 66 | 274 | 5.2 | 10.4 | 0.00 | 0.00 | 0.00 | 76 | |
| 20260509181847 | 66 | 262 | 7.8 | 10.4 | 0.00 | 0.00 | 0.00 | 76 | |
| 20260509181647 | 66 | 274 | 7.8 | 9.6 | 0.00 | 0.00 | 0.00 | 77 | |
| 20260509181243 | 65 | 275 | 6.1 | 11.3 | 0.00 | 0.00 | 0.00 | 77 | |
| 20260509181041 | 65 | 254 | 7.8 | 11.3 | 0.00 | 0.00 | 0.00 | 78 | |
| 20260509180838 | 65 | 261 | 7.8 | 11.3 | 0.00 | 0.00 | 0.00 | 78 | |
| 20260509180637 | 65 | 260 | 7.8 | 11.3 | 0.00 | 0.00 | 0.00 | 79 | |
| 20260509180233 | 65 | 260 | 11.3 | 9.6 | 0.00 | 0.00 | 0.00 | 78 | |
| 20260509180032 | 65 | 282 | 10.4 | 9.6 | 0.00 | 0.00 | 0.00 | 78 | |
| 20260509175629 | 65 | 272 | 5.2 | 9.6 | 0.00 | 0.00 | 0.00 | 79 | |
| 20260509175426 | 65 | 275 | 7.0 | 9.6 | 0.00 | 0.00 | 0.00 | 79 | |
| 20260509175224 | 65 | 267 | 2.6 | 8.7 | 0.00 | 0.00 | 0.00 | 79 | |
| 20260509175024 | 65 | 275 | 7.0 | 8.7 | 0.00 | 0.00 | 0.00 | 78 | |
| 20260509174818 | 65 | 278 | 3.5 | 8.7 | 0.00 | 0.00 | 0.00 | 79 | |
| 20260509174616 | 65 | 264 | 5.2 | 8.7 | 0.00 | 0.00 | 0.00 | 79 | |
| 20260509174416 | 65 | 288 | 2.6 | 8.7 | 0.00 | 0.00 | 0.00 | 79 | |
| 20260509174214 | 64 | 262 | 4.3 | 9.6 | 0.00 | 0.00 | 0.00 | 80 | |
| 20260509174012 | 64 | 277 | 7.0 | 9.6 | 0.00 | 0.00 | 0.00 | 78 | |
| 20260509173810 | 64 | 319 | 3.5 | 8.7 | 0.00 | 0.00 | 0.00 | 78 | |
| 20260509173608 | 64 | 274 | 2.6 | 8.7 | 0.00 | 0.00 | 0.00 | 80 | |
| 20260509173407 | 64 | 286 | 7.0 | 8.7 | 0.00 | 0.00 | 0.00 | 80 | |
| 20260509173204 | 63 | 285 | 6.1 | 9.6 | 0.00 | 0.00 | 0.00 | 80 | |
| 20260509173002 | 64 | 274 | 3.5 | 9.6 | 0.00 | 0.00 | 0.00 | 81 | |
| 20260509172557 | 64 | 264 | 7.0 | 9.6 | 0.00 | 0.00 | 0.00 | 81 | |
| 20260509172357 | 63 | 282 | 5.2 | 9.6 | 0.00 | 0.00 | 0.00 | 81 | |
| 20260509172155 | 63 | 258 | 5.2 | 8.7 | 0.00 | 0.00 | 0.00 | 80 | |
| 20260509171953 | 64 | 279 | 6.1 | 8.7 | 0.00 | 0.00 | 0.00 | 81 | |
| 20260509171752 | 63 | 279 | 4.3 | 7.8 | 0.00 | 0.00 | 0.00 | 82 | |
| 20260509171550 | 63 | 264 | 4.3 | 7.8 | 0.00 | 0.00 | 0.00 | 83 | |
| 20260509171347 | 62 | 299 | 6.1 | 7.8 | 0.00 | 0.00 | 0.00 | 83 | |
| 20260509171144 | 63 | 275 | 6.1 | 7.8 | 0.00 | 0.00 | 0.00 | 85 | |
| 20260509170742 | 62 | 268 | 5.2 | 8.7 | 0.00 | 0.00 | 0.00 | 86 | |
| 20260509170540 | 62 | 275 | 7.0 | 8.7 | 0.00 | 0.00 | 0.00 | 87 | |
| 20260509170338 | 62 | 275 | 3.5 | 8.7 | 0.00 | 0.00 | 0.00 | 87 | |
| 20260509170136 | 62 | 268 | 2.6 | 7.8 | 0.00 | 0.00 | 0.00 | 88 | |
| 20260509165733 | 61 | 275 | 4.3 | 7.8 | 0.00 | 0.00 | 0.00 | 89 | |
| 20260509165530 | 61 | 322 | 2.6 | 7.8 | 0.00 | 0.00 | 0.00 | 88 | |
| 20260509165126 | 60 | 282 | 1.7 | 7.0 | 0.00 | 0.00 | 0.00 | 91 | |
| 20260509164925 | 60 | 302 | 0.9 | 7.0 | 0.00 | 0.00 | 0.00 | 94 | |
| 20260509164723 | 60 | 275 | 4.3 | 7.0 | 0.00 | 0.00 | 0.00 | 95 | |
| 20260509164318 | 59 | 313 | 2.6 | 6.1 | 0.00 | 0.00 | 0.00 | 95 | |
| 20260509163915 | 59 | 289 | 1.7 | 6.1 | 0.00 | 0.00 | 0.00 | 96 | |
| 20260509163713 | 59 | 275 | 4.3 | 6.1 | 0.00 | 0.00 | 0.00 | 96 | |
| 20260509163512 | 59 | 274 | 3.5 | 6.1 | 0.00 | 0.00 | 0.00 | 97 | |
| 20260509163310 | 58 | 286 | 2.6 | 3.5 | 0.00 | 0.00 | 0.00 | 97 | |
| 20260509163108 | 58 | 279 | 0.9 | 3.5 | 0.00 | 0.00 | 0.00 | 97 | |
| 20260509162906 | 58 | 194 | 0.0 | 3.5 | 0.00 | 0.00 | 0.00 | 97 | |
| 20260509162704 | 58 | 271 | 0.9 | 6.1 | 0.00 | 0.00 | 0.00 | 97 | |
| 20260509162502 | 58 | 286 | 2.6 | 6.1 | 0.00 | 0.00 | 0.00 | 97 | |
| 20260509162058 | 57 | 277 | 3.5 | 4.3 | 0.00 | 0.00 | 0.00 | 97 | |
| 20260509161855 | 57 | 298 | 0.9 | 4.3 | 0.00 | 0.00 | 0.00 | 97 | |
| 20260509161654 | 57 | 313 | 0.0 | 5.2 | 0.00 | 0.00 | 0.00 | 97 | |
| 20260509161452 | 57 | 316 | 2.6 | 5.2 | 0.00 | 0.00 | 0.00 | 97 | |
| 20260509161250 | 57 | 248 | 1.7 | 1.7 | 0.00 | 0.00 | 0.00 | 97 | |
| 20260509161049 | 57 | 285 | 2.6 | 1.7 | 0.00 | 0.00 | 0.00 | 97 | |
| 20260509160847 | 57 | 240 | 0.0 | 1.7 | 0.00 | 0.00 | 0.00 | 97 | |
| 20260509160643 | 57 | 240 | 0.0 | 3.5 | 0.00 | 0.00 | 0.00 | 97 | |
| 20260509160241 | 56 | 292 | 2.6 | 2.6 | 0.00 | 0.00 | 0.00 | 97 | |
| 20260509160039 | 57 | 298 | 1.7 | 2.6 | 0.00 | 0.00 | 0.00 | 97 | |
| 20260509155837 | 57 | 272 | 1.7 | 2.6 | 0.00 | 0.00 | 0.00 | 97 | |
| 20260509155232 | 57 | 261 | 0.0 | 0.0 | 0.00 | 0.00 | 0.00 | 97 | |
| 20260509155030 | 57 | 261 | 0.0 | 0.0 | 0.00 | 0.00 | 0.00 | 97 | |
| 20260509154828 | 56 | 261 | 0.0 | 0.0 | 0.00 | 0.00 | 0.00 | 97 | |
| 20260509154626 | 56 | 261 | 0.0 | 0.0 | 0.00 | 0.00 | 0.00 | 97 | |
| 20260509154424 | 56 | 261 | 0.0 | 0.0 | 0.00 | 0.00 | 0.00 | 97 | |
| 20260509154222 | 56 | 261 | 0.0 | 0.0 | 0.00 | 0.00 | 0.00 | 97 | |
| 20260509154021 | 56 | 261 | 0.0 | 0.0 | 0.00 | 0.00 | 0.00 | 97 | |
| 20260509153817 | 56 | 261 | 0.0 | 0.0 | 0.00 | 0.00 | 0.00 | 97 | |
| 20260509153617 | 56 | 261 | 0.0 | 0.0 | 0.00 | 0.00 | 0.00 | 97 | |
| 20260509152605 | 56 | 286 | 0.0 | 0.0 | 0.00 | 0.00 | 0.00 | 97 | |
| 20260509152203 | 56 | 286 | 0.0 | 0.0 | 0.00 | 0.00 | 0.00 | 97 | |
| 20260509152001 | 56 | 286 | 0.0 | 0.0 | 0.00 | 0.00 | 0.00 | 97 | |
| 20260509151759 | 56 | 286 | 0.0 | 0.0 | 0.00 | 0.00 | 0.00 | 97 | |
| 20260509151557 | 56 | 286 | 0.0 | 0.0 | 0.00 | 0.00 | 0.00 | 97 | |
| 20260509151355 | 56 | 286 | 0.0 | 0.0 | 0.00 | 0.00 | 0.00 | 97 | |
| 20260509151153 | 56 | 286 | 0.0 | 0.0 | 0.00 | 0.00 | 0.00 | 97 | |
| 20260509150951 | 56 | 286 | 0.0 | 0.0 | 0.00 | 0.00 | 0.00 | 97 | |
| 20260509150750 | 55 | 286 | 0.0 | 0.0 | 0.00 | 0.00 | 0.00 | 97 | |
| 20260509150548 | 55 | 286 | 0.0 | 0.0 | 0.00 | 0.00 | 0.00 | 97 | |
| 20260509150346 | 55 | 286 | 0.0 | 0.0 | 0.00 | 0.00 | 0.00 | 97 | |
| 20260509150144 | 55 | 286 | 0.0 | 0.0 | 0.00 | 0.00 | 0.00 | 97 | |
| 20260509145942 | 55 | 286 | 0.0 | 0.0 | 0.00 | 0.00 | 0.00 | 97 | |
| 20260509145537 | 55 | 286 | 0.0 | 0.0 | 0.00 | 0.00 | 0.00 | 97 | |
| 20260509145336 | 55 | 286 | 0.0 | 0.0 | 0.00 | 0.00 | 0.00 | 97 | |
| 20260509145135 | 55 | 286 | 0.0 | 0.0 | 0.00 | 0.00 | 0.00 | 97 | |
| 20260509144933 | 55 | 286 | 0.0 | 0.0 | 0.00 | 0.00 | 0.00 | 97 | |
| 20260509144529 | 55 | 286 | 0.0 | 0.0 | 0.00 | 0.00 | 0.00 | 97 | |
| 20260509144327 | 54 | 286 | 0.0 | 0.0 | 0.00 | 0.00 | 0.00 | 97 | |
| 20260509144125 | 55 | 286 | 0.0 | 0.0 | 0.00 | 0.00 | 0.00 | 97 | |
| 20260509143923 | 54 | 286 | 0.0 | 0.0 | 0.00 | 0.00 | 0.00 | 97 | |
| 20260509143721 | 54 | 286 | 0.0 | 0.0 | 0.00 | 0.00 | 0.00 | 97 | |
| 20260509143115 | 54 | 286 | 0.0 | 0.0 | 0.00 | 0.00 | 0.00 | 97 | |
| 20260509142510 | 54 | 286 | 0.0 | 0.0 | 0.00 | 0.00 | 0.00 | 97 | |
| 20260509142308 | 54 | 286 | 0.0 | 0.0 | 0.00 | 0.00 | 0.00 | 97 | |
| 20260509142106 | 54 | 286 | 0.0 | 0.0 | 0.00 | 0.00 | 0.00 | 97 | |
| 20260509141902 | 54 | 286 | 0.0 | 0.0 | 0.00 | 0.00 | 0.00 | 97 | |
| 20260509141702 | 53 | 286 | 0.0 | 0.0 | 0.00 | 0.00 | 0.00 | 97 | |
| 20260509141500 | 53 | 286 | 0.0 | 0.0 | 0.00 | 0.00 | 0.00 | 97 | |
| 20260509141258 | 53 | 286 | 0.0 | 0.0 | 0.00 | 0.00 | 0.00 | 97 | |
| 20260509141056 | 53 | 286 | 0.0 | 0.0 | 0.00 | 0.00 | 0.00 | 97 | |
| 20260509140854 | 53 | 286 | 0.0 | 0.0 | 0.00 | 0.00 | 0.00 | 97 | |
| 20260509140653 | 53 | 286 | 0.0 | 0.0 | 0.00 | 0.00 | 0.00 | 97 | |
| 20260509140451 | 53 | 286 | 0.0 | 0.0 | 0.00 | 0.00 | 0.00 | 97 | |
| 20260509140249 | 53 | 286 | 0.0 | 0.0 | 0.00 | 0.00 | 0.00 | 97 | |
| 20260509140047 | 53 | 286 | 0.0 | 0.0 | 0.00 | 0.00 | 0.00 | 97 | |
| 20260509135643 | 52 | 286 | 0.0 | 0.0 | 0.00 | 0.00 | 0.00 | 97 | |
| 20260509135441 | 52 | 286 | 0.0 | 0.0 | 0.00 | 0.00 | 0.00 | 97 | |
| 20260509135238 | 52 | 286 | 0.0 | 0.0 | 0.00 | 0.00 | 0.00 | 97 | |
| 20260509134835 | 52 | 286 | 0.0 | 0.0 | 0.00 | 0.00 | 0.00 | 97 | |
| 20260509134634 | 52 | 286 | 0.0 | 0.0 | 0.00 | 0.00 | 0.00 | 97 | |
| 20260509134432 | 52 | 286 | 0.0 | 0.0 | 0.00 | 0.00 | 0.00 | 97 | |
| 20260509134230 | 52 | 286 | 0.0 | 0.0 | 0.00 | 0.00 | 0.00 | 97 | |
| 20260509134026 | 52 | 286 | 0.0 | 0.0 | 0.00 | 0.00 | 0.00 | 97 | |
| 20260509133624 | 52 | 286 | 0.0 | 0.0 | 0.00 | 0.00 | 0.00 | 97 | |
| 20260509133426 | 51 | 286 | 0.0 | 0.0 | 0.00 | 0.00 | 0.00 | 97 | |
| 20260509133221 | 51 | 286 | 0.0 | 0.0 | 0.00 | 0.00 | 0.00 | 97 | |
| 20260509133018 | 52 | 286 | 0.0 | 0.0 | 0.00 | 0.00 | 0.00 | 97 | |
| 20260509132614 | 51 | 286 | 0.0 | 0.0 | 0.00 | 0.00 | 0.00 | 97 | |
| 20260509132413 | 51 | 286 | 0.0 | 0.0 | 0.00 | 0.00 | 0.00 | 97 | |
| 20260509132211 | 52 | 286 | 0.0 | 0.0 | 0.00 | 0.00 | 0.00 | 97 | |
| 20260509132009 | 51 | 286 | 0.0 | 0.0 | 0.00 | 0.00 | 0.00 | 97 | |
| 20260509131807 | 51 | 286 | 0.0 | 0.0 | 0.00 | 0.00 | 0.00 | 97 | |
| 20260509131605 | 51 | 286 | 0.0 | 0.0 | 0.00 | 0.00 | 0.00 | 97 | |
| 20260509131403 | 51 | 286 | 0.0 | 0.0 | 0.00 | 0.00 | 0.00 | 97 | |
| 20260509131201 | 51 | 286 | 0.0 | 0.0 | 0.00 | 0.00 | 0.00 | 97 | |
| 20260509130959 | 52 | 286 | 0.0 | 0.0 | 0.00 | 0.00 | 0.00 | 97 | |
| 20260509130757 | 51 | 286 | 0.0 | 0.0 | 0.00 | 0.00 | 0.00 | 97 | |
| 20260509130555 | 51 | 286 | 0.0 | 0.0 | 0.00 | 0.00 | 0.00 | 97 | |
| 20260509125748 | 51 | 286 | 0.0 | 0.0 | 0.00 | 0.00 | 0.00 | 97 | |
| 20260509124940 | 52 | 286 | 0.0 | 0.0 | 0.00 | 0.00 | 0.00 | 97 | |
| 20260509124739 | 52 | 286 | 0.0 | 0.0 | 0.00 | 0.00 | 0.00 | 97 | |
| 20260509124335 | 52 | 286 | 0.0 | 0.0 | 0.00 | 0.00 | 0.00 | 97 | |
| 20260509124133 | 52 | 286 | 0.0 | 0.0 | 0.00 | 0.00 | 0.00 | 97 | |
| 20260509123931 | 52 | 286 | 0.0 | 0.0 | 0.00 | 0.00 | 0.00 | 97 | |
| 20260509123729 | 52 | 286 | 0.0 | 0.0 | 0.00 | 0.00 | 0.00 | 97 | |
| 20260509123325 | 52 | 286 | 0.0 | 0.0 | 0.00 | 0.00 | 0.00 | 96 | |
| 20260509123123 | 52 | 286 | 0.0 | 0.0 | 0.00 | 0.00 | 0.00 | 96 | |
| 20260509122921 | 52 | 286 | 0.0 | 0.0 | 0.00 | 0.00 | 0.00 | 96 | |
| 20260509122719 | 52 | 286 | 0.0 | 0.0 | 0.00 | 0.00 | 0.00 | 96 | |
| 20260509122516 | 52 | 286 | 0.0 | 0.0 | 0.00 | 0.00 | 0.00 | 97 | |
| 20260509122316 | 52 | 286 | 0.0 | 0.0 | 0.00 | 0.00 | 0.00 | 97 | |
| 20260509122114 | 52 | 286 | 0.0 | 0.0 | 0.00 | 0.00 | 0.00 | 97 | |
| 20260509121911 | 52 | 286 | 0.0 | 0.0 | 0.00 | 0.00 | 0.00 | 96 | |
| 20260509121506 | 52 | 286 | 0.0 | 0.0 | 0.00 | 0.00 | 0.00 | 96 | |
| 20260509121306 | 52 | 286 | 0.0 | 0.0 | 0.00 | 0.00 | 0.00 | 96 | |
| 20260509120700 | 52 | 286 | 0.0 | 0.0 | 0.00 | 0.00 | 0.00 | 96 | |
| 20260509120458 | 52 | 286 | 0.0 | 0.0 | 0.00 | 0.00 | 0.00 | 96 | |
| 20260509120256 | 52 | 286 | 0.0 | 0.0 | 0.00 | 0.00 | 0.00 | 96 | |
| 20260509120055 | 52 | 286 | 0.0 | 0.0 | 0.00 | 0.00 | 0.00 | 96 | |
| 20260509115852 | 52 | 286 | 0.0 | 0.0 | 0.00 | 0.00 | 0.00 | 96 | |
| 20260509115650 | 52 | 286 | 0.0 | 0.0 | 0.00 | 0.00 | 0.00 | 96 | |
| 20260509115449 | 52 | 286 | 0.0 | 0.0 | 0.00 | 0.00 | 0.00 | 96 | |
| 20260509115247 | 52 | 286 | 0.0 | 0.0 | 0.00 | 0.00 | 0.00 | 96 | |
| 20260509115045 | 52 | 286 | 0.0 | 0.0 | 0.00 | 0.00 | 0.00 | 96 | |
| 20260509114843 | 52 | 286 | 0.0 | 0.0 | 0.00 | 0.00 | 0.00 | 96 | |
| 20260509114640 | 52 | 286 | 0.0 | 0.0 | 0.00 | 0.00 | 0.00 | 96 | |
| 20260509114438 | 52 | 286 | 0.0 | 0.0 | 0.00 | 0.00 | 0.00 | 96 | |
| 20260509114237 | 52 | 286 | 0.0 | 0.0 | 0.00 | 0.00 | 0.00 | 96 | |
| 20260509114035 | 52 | 286 | 0.0 | 0.0 | 0.00 | 0.00 | 0.00 | 96 | |
| 20260509113834 | 52 | 286 | 0.0 | 0.0 | 0.00 | 0.00 | 0.00 | 96 | |
| 20260509113430 | 52 | 286 | 0.0 | 0.0 | 0.00 | 0.00 | 0.00 | 96 | |
| 20260509113026 | 52 | 286 | 0.0 | 0.0 | 0.00 | 0.00 | 0.00 | 96 | |
| 20260509112824 | 52 | 286 | 0.0 | 0.0 | 0.00 | 0.00 | 0.00 | 96 | |
| 20260509112622 | 52 | 286 | 0.0 | 0.0 | 0.00 | 0.00 | 0.00 | 96 | |
| 20260509112218 | 52 | 286 | 0.0 | 0.0 | 0.00 | 0.00 | 0.00 | 96 | |
| 20260509112016 | 52 | 286 | 0.0 | 0.0 | 0.00 | 0.00 | 0.00 | 96 | |
| 20260509111613 | 52 | 286 | 0.0 | 0.0 | 0.00 | 0.00 | 0.00 | 96 | |
| 20260509111411 | 52 | 286 | 0.0 | 0.0 | 0.00 | 0.00 | 0.00 | 96 | |
| 20260509111209 | 52 | 286 | 0.0 | 0.0 | 0.00 | 0.00 | 0.00 | 96 | |
| 20260509111006 | 51 | 286 | 0.0 | 0.0 | 0.00 | 0.00 | 0.00 | 96 | |
| 20260509110805 | 52 | 286 | 0.0 | 0.0 | 0.00 | 0.00 | 0.00 | 95 | |
| 20260509110603 | 52 | 286 | 0.0 | 0.0 | 0.00 | 0.00 | 0.00 | 95 | |
| 20260509110359 | 52 | 286 | 0.0 | 0.0 | 0.00 | 0.00 | 0.00 | 95 | |
| 20260509110159 | 52 | 286 | 0.0 | 0.0 | 0.00 | 0.00 | 0.00 | 95 | |
| 20260509105957 | 52 | 286 | 0.0 | 0.0 | 0.00 | 0.00 | 0.00 | 95 | |
| 20260509105755 | 52 | 286 | 0.0 | 0.0 | 0.00 | 0.00 | 0.00 | 95 | |
| 20260509105554 | 52 | 286 | 0.0 | 0.0 | 0.00 | 0.00 | 0.00 | 95 | |
| 20260509105351 | 52 | 286 | 0.0 | 0.0 | 0.00 | 0.00 | 0.00 | 95 | |
| 20260509105149 | 52 | 286 | 0.0 | 0.0 | 0.00 | 0.00 | 0.00 | 95 | |
| 20260509104946 | 52 | 286 | 0.0 | 0.0 | 0.00 | 0.00 | 0.00 | 95 | |
| 20260509104746 | 52 | 286 | 0.0 | 0.0 | 0.00 | 0.00 | 0.00 | 95 | |
| 20260509104542 | 52 | 286 | 0.0 | 0.0 | 0.00 | 0.00 | 0.00 | 95 | |
| 20260509104342 | 53 | 286 | 0.0 | 0.0 | 0.00 | 0.00 | 0.00 | 95 | |
| 20260509104140 | 52 | 286 | 0.0 | 0.0 | 0.00 | 0.00 | 0.00 | 95 | |
| 20260509103938 | 53 | 286 | 0.0 | 0.0 | 0.00 | 0.00 | 0.00 | 95 | |
| 20260509103736 | 53 | 286 | 0.0 | 0.0 | 0.00 | 0.00 | 0.00 | 95 | |
| 20260509103533 | 53 | 286 | 0.0 | 0.0 | 0.00 | 0.00 | 0.00 | 95 | |
| 20260509102727 | 52 | 286 | 0.0 | 0.0 | 0.00 | 0.00 | 0.00 | 95 | |
| 20260509102121 | 52 | 286 | 0.0 | 0.0 | 0.00 | 0.00 | 0.00 | 95 | |
| 20260509101717 | 53 | 286 | 0.0 | 0.0 | 0.00 | 0.00 | 0.00 | 95 | |
| 20260509101515 | 53 | 286 | 0.0 | 0.0 | 0.00 | 0.00 | 0.00 | 95 | |
| 20260509101313 | 53 | 260 | 0.0 | 0.0 | 0.00 | 0.00 | 0.00 | 94 | |
| 20260509101111 | 53 | 260 | 0.0 | 0.0 | 0.00 | 0.00 | 0.00 | 95 | |
| 20260509100910 | 53 | 260 | 0.0 | 0.0 | 0.00 | 0.00 | 0.00 | 95 | |
| 20260509100708 | 54 | 260 | 0.0 | 0.0 | 0.00 | 0.00 | 0.00 | 95 | |
| 20260509095900 | 54 | 260 | 0.0 | 0.0 | 0.00 | 0.00 | 0.00 | 95 | |
| 20260509095456 | 54 | 260 | 0.0 | 0.0 | 0.00 | 0.00 | 0.00 | 94 | |
| 20260509095254 | 54 | 260 | 0.0 | 0.0 | 0.00 | 0.00 | 0.00 | 94 | |
| 20260509094849 | 54 | 260 | 0.0 | 0.0 | 0.00 | 0.00 | 0.00 | 94 | |
| 20260509094647 | 54 | 260 | 0.0 | 0.0 | 0.00 | 0.00 | 0.00 | 94 | |
| 20260509094447 | 54 | 260 | 0.0 | 0.0 | 0.00 | 0.00 | 0.00 | 94 | |
| 20260509094245 | 54 | 260 | 0.0 | 0.0 | 0.00 | 0.00 | 0.00 | 95 | |
| 20260509094043 | 54 | 260 | 0.0 | 0.0 | 0.00 | 0.00 | 0.00 | 94 | |
| 20260509093841 | 54 | 260 | 0.0 | 0.0 | 0.00 | 0.00 | 0.00 | 94 | |
| 20260509093639 | 54 | 260 | 0.0 | 0.0 | 0.00 | 0.00 | 0.00 | 94 | |
| 20260509093235 | 54 | 260 | 0.0 | 0.0 | 0.00 | 0.00 | 0.00 | 94 | |
| 20260509093033 | 54 | 260 | 0.0 | 0.0 | 0.00 | 0.00 | 0.00 | 94 | |
| 20260509092831 | 54 | 260 | 0.0 | 0.0 | 0.00 | 0.00 | 0.00 | 94 | |
| 20260509092427 | 54 | 260 | 0.0 | 0.0 | 0.00 | 0.00 | 0.00 | 94 | |
| 20260509092226 | 54 | 260 | 0.0 | 0.0 | 0.00 | 0.00 | 0.00 | 94 | |
| 20260509092023 | 54 | 260 | 0.0 | 0.0 | 0.00 | 0.00 | 0.00 | 94 | |
| 20260509091620 | 54 | 260 | 0.0 | 0.0 | 0.00 | 0.00 | 0.00 | 94 | |
| 20260509091417 | 54 | 260 | 0.0 | 0.0 | 0.00 | 0.00 | 0.00 | 94 | |
| 20260509091014 | 54 | 260 | 0.0 | 0.0 | 0.00 | 0.00 | 0.00 | 94 | |
| 20260509090812 | 54 | 260 | 0.0 | 0.0 | 0.00 | 0.00 | 0.00 | 94 | |
| 20260509090611 | 54 | 260 | 0.0 | 0.0 | 0.00 | 0.00 | 0.00 | 94 | |
| 20260509090409 | 54 | 260 | 0.0 | 0.0 | 0.00 | 0.00 | 0.00 | 94 | |
| 20260509090207 | 54 | 260 | 0.0 | 0.0 | 0.00 | 0.00 | 0.00 | 94 | |
| 20260509085803 | 54 | 260 | 0.0 | 0.0 | 0.00 | 0.00 | 0.00 | 94 | |
| 20260509085601 | 54 | 260 | 0.0 | 0.0 | 0.00 | 0.00 | 0.00 | 94 | |
| 20260509085359 | 54 | 260 | 0.0 | 0.0 | 0.00 | 0.00 | 0.00 | 94 | |
| 20260509085157 | 54 | 260 | 0.0 | 0.0 | 0.00 | 0.00 | 0.00 | 93 | |
| 20260509084955 | 54 | 260 | 0.0 | 0.0 | 0.00 | 0.00 | 0.00 | 93 | |
| 20260509084753 | 54 | 260 | 0.0 | 0.0 | 0.00 | 0.00 | 0.00 | 93 | |
| 20260509084551 | 54 | 260 | 0.0 | 0.0 | 0.00 | 0.00 | 0.00 | 93 | |
| 20260509084148 | 54 | 260 | 0.0 | 0.0 | 0.00 | 0.00 | 0.00 | 93 | |
| 20260509083946 | 54 | 260 | 0.0 | 0.0 | 0.00 | 0.00 | 0.00 | 92 | |
| 20260509083542 | 55 | 260 | 0.0 | 0.0 | 0.00 | 0.00 | 0.00 | 93 | |
| 20260509083340 | 55 | 260 | 0.0 | 0.0 | 0.00 | 0.00 | 0.00 | 93 | |
| 20260509082935 | 55 | 260 | 0.0 | 0.0 | 0.00 | 0.00 | 0.00 | 92 | |
| 20260509082734 | 55 | 260 | 0.0 | 0.0 | 0.00 | 0.00 | 0.00 | 93 | |
| 20260509082532 | 55 | 260 | 0.0 | 0.0 | 0.00 | 0.00 | 0.00 | 93 | |
| 20260509082331 | 55 | 260 | 0.0 | 0.0 | 0.00 | 0.00 | 0.00 | 93 | |
| 20260509082129 | 55 | 260 | 0.0 | 0.0 | 0.00 | 0.00 | 0.00 | 93 | |
| 20260509081926 | 55 | 260 | 0.0 | 0.0 | 0.00 | 0.00 | 0.00 | 93 | |
| 20260509081523 | 55 | 260 | 0.0 | 0.0 | 0.00 | 0.00 | 0.00 | 92 | |
| 20260509081321 | 55 | 260 | 0.0 | 0.0 | 0.00 | 0.00 | 0.00 | 92 | |
| 20260509080915 | 55 | 260 | 0.0 | 0.0 | 0.00 | 0.00 | 0.00 | 92 | |
| 20260509080715 | 55 | 260 | 0.0 | 0.0 | 0.00 | 0.00 | 0.00 | 92 | |
| 20260509080513 | 55 | 260 | 0.0 | 0.0 | 0.00 | 0.00 | 0.00 | 92 | |
| 20260509080311 | 55 | 260 | 0.0 | 0.0 | 0.00 | 0.00 | 0.00 | 92 | |
| 20260509075908 | 55 | 260 | 0.0 | 0.0 | 0.00 | 0.00 | 0.00 | 92 | |
| 20260509075706 | 56 | 260 | 0.0 | 0.0 | 0.00 | 0.00 | 0.00 | 92 | |
| 20260509075504 | 56 | 260 | 0.0 | 0.0 | 0.00 | 0.00 | 0.00 | 92 | |
| 20260509075305 | 56 | 260 | 0.0 | 0.0 | 0.00 | 0.00 | 0.00 | 92 | |
| 20260509075101 | 56 | 260 | 0.0 | 0.0 | 0.00 | 0.00 | 0.00 | 92 | |
| 20260509074656 | 56 | 260 | 0.0 | 0.0 | 0.00 | 0.00 | 0.00 | 91 | |
| 20260509074454 | 56 | 260 | 0.0 | 0.0 | 0.00 | 0.00 | 0.00 | 91 | |
| 20260509074252 | 56 | 260 | 0.0 | 0.0 | 0.00 | 0.00 | 0.00 | 91 | |
| 20260509074051 | 56 | 260 | 0.0 | 0.0 | 0.00 | 0.00 | 0.00 | 91 | |
| 20260509073849 | 56 | 260 | 0.0 | 0.0 | 0.00 | 0.00 | 0.00 | 91 | |
| 20260509073241 | 56 | 260 | 0.0 | 0.0 | 0.00 | 0.00 | 0.00 | 91 | |
| 20260509073041 | 56 | 260 | 0.0 | 0.0 | 0.00 | 0.00 | 0.00 | 91 | |
| 20260509072839 | 56 | 260 | 0.0 | 0.0 | 0.00 | 0.00 | 0.00 | 91 | |
| 20260509072637 | 56 | 260 | 0.0 | 0.0 | 0.00 | 0.00 | 0.00 | 91 | |
| 20260509072435 | 56 | 260 | 0.0 | 0.0 | 0.00 | 0.00 | 0.00 | 91 | |
| 20260509071830 | 56 | 260 | 0.0 | 0.0 | 0.00 | 0.00 | 0.00 | 90 | |
| 20260509071628 | 56 | 260 | 0.0 | 0.0 | 0.00 | 0.00 | 0.00 | 90 | |
| 20260509071426 | 56 | 260 | 0.0 | 0.0 | 0.00 | 0.00 | 0.00 | 90 | |
| 20260509071223 | 56 | 260 | 0.0 | 0.0 | 0.00 | 0.00 | 0.00 | 90 | |
| 20260509071022 | 57 | 260 | 0.0 | 0.0 | 0.00 | 0.00 | 0.00 | 90 | |
| 20260509070820 | 56 | 260 | 0.0 | 0.0 | 0.00 | 0.00 | 0.00 | 90 | |
| 20260509070416 | 57 | 260 | 0.0 | 0.0 | 0.00 | 0.00 | 0.00 | 90 | |
| 20260509070012 | 57 | 260 | 0.0 | 0.0 | 0.00 | 0.00 | 0.00 | 90 | |
| 20260509065405 | 57 | 260 | 0.0 | 0.0 | 0.00 | 0.00 | 0.00 | 90 | |
| 20260509065205 | 57 | 260 | 0.0 | 0.0 | 0.00 | 0.00 | 0.00 | 90 | |
| 20260509065003 | 57 | 260 | 0.0 | 0.0 | 0.00 | 0.00 | 0.00 | 90 | |
| 20260509064800 | 57 | 260 | 0.0 | 0.0 | 0.00 | 0.00 | 0.00 | 90 | |
| 20260509064357 | 57 | 260 | 0.0 | 0.0 | 0.00 | 0.00 | 0.00 | 90 | |
| 20260509064155 | 57 | 260 | 0.0 | 0.0 | 0.00 | 0.00 | 0.00 | 90 | |
| 20260509063953 | 57 | 260 | 0.0 | 0.0 | 0.00 | 0.00 | 0.00 | 89 | |
| 20260509063751 | 57 | 260 | 0.0 | 0.0 | 0.00 | 0.00 | 0.00 | 89 | |
| 20260509063549 | 57 | 260 | 0.0 | 0.0 | 0.00 | 0.00 | 0.00 | 89 | |
| 20260509063348 | 57 | 260 | 0.0 | 0.0 | 0.00 | 0.00 | 0.00 | 89 | |
| 20260509063144 | 57 | 260 | 0.0 | 0.0 | 0.00 | 0.00 | 0.00 | 89 | |
| 20260509062944 | 58 | 260 | 0.0 | 0.0 | 0.00 | 0.00 | 0.00 | 89 | |
| 20260509062740 | 58 | 260 | 0.0 | 0.0 | 0.00 | 0.00 | 0.00 | 89 | |
| 20260509062540 | 58 | 260 | 0.0 | 0.0 | 0.00 | 0.00 | 0.00 | 89 | |
| 20260509062338 | 58 | 260 | 0.0 | 0.0 | 0.00 | 0.00 | 0.00 | 89 | |
| 20260509062136 | 58 | 260 | 0.0 | 2.6 | 0.00 | 0.00 | 0.00 | 89 | |
| 20260509061732 | 58 | 295 | 0.9 | 2.6 | 0.00 | 0.00 | 0.00 | 89 | |
| 20260509061531 | 58 | 298 | 0.9 | 2.6 | 0.00 | 0.00 | 0.00 | 89 | |
| 20260509061127 | 58 | 296 | 1.7 | 2.6 | 0.00 | 0.00 | 0.00 | 89 | |
| 20260509060723 | 58 | 300 | 0.9 | 2.6 | 0.00 | 0.00 | 0.00 | 89 | |
| 20260509060519 | 58 | 305 | 2.6 | 2.6 | 0.00 | 0.00 | 0.00 | 89 | |
| 20260509060319 | 58 | 306 | 1.7 | 0.0 | 0.00 | 0.00 | 0.00 | 89 | |
| 20260509060117 | 58 | 298 | 1.7 | 0.0 | 0.00 | 0.00 | 0.00 | 88 | |
| 20260509055713 | 58 | 268 | 0.0 | 0.0 | 0.00 | 0.00 | 0.00 | 89 | |
| 20260509055309 | 58 | 268 | 0.0 | 0.0 | 0.00 | 0.00 | 0.00 | 88 | |
| 20260509055108 | 58 | 268 | 0.0 | 0.0 | 0.00 | 0.00 | 0.00 | 88 | |
| 20260509054502 | 58 | 268 | 0.0 | 0.0 | 0.00 | 0.00 | 0.00 | 88 | |
| 20260509054300 | 58 | 268 | 0.0 | 0.0 | 0.00 | 0.00 | 0.00 | 88 | |
| 20260509054058 | 58 | 268 | 0.0 | 0.0 | 0.00 | 0.00 | 0.00 | 88 | |
| 20260509053856 | 58 | 268 | 0.0 | 0.0 | 0.00 | 0.00 | 0.00 | 88 | |
| 20260509053654 | 58 | 268 | 0.0 | 0.0 | 0.00 | 0.00 | 0.00 | 88 | |
| 20260509053452 | 58 | 268 | 0.0 | 0.0 | 0.00 | 0.00 | 0.00 | 88 | |
| 20260509053251 | 58 | 268 | 0.0 | 0.0 | 0.00 | 0.00 | 0.00 | 88 | |
| 20260509053048 | 58 | 268 | 0.0 | 0.0 | 0.00 | 0.00 | 0.00 | 87 | |
| 20260509052846 | 58 | 268 | 0.0 | 0.0 | 0.00 | 0.00 | 0.00 | 87 | |
| 20260509052443 | 59 | 268 | 0.0 | 0.0 | 0.00 | 0.00 | 0.00 | 87 | |
| 20260509051837 | 59 | 268 | 0.0 | 0.0 | 0.00 | 0.00 | 0.00 | 86 | |
| 20260509051231 | 59 | 268 | 0.0 | 0.0 | 0.00 | 0.00 | 0.00 | 86 | |
| 20260509051029 | 59 | 268 | 0.0 | 0.0 | 0.00 | 0.00 | 0.00 | 86 | |
| 20260509050828 | 59 | 268 | 0.0 | 0.0 | 0.00 | 0.00 | 0.00 | 86 | |
| 20260509050624 | 59 | 268 | 0.0 | 0.0 | 0.00 | 0.00 | 0.00 | 86 | |
| 20260509050424 | 59 | 268 | 0.0 | 0.0 | 0.00 | 0.00 | 0.00 | 85 | |
| 20260509050222 | 59 | 268 | 0.0 | 0.0 | 0.00 | 0.00 | 0.00 | 85 | |
| 20260509050020 | 59 | 268 | 0.0 | 0.0 | 0.00 | 0.00 | 0.00 | 85 | |
| 20260509045818 | 59 | 268 | 0.0 | 0.0 | 0.00 | 0.00 | 0.00 | 86 | |
| 20260509045616 | 59 | 268 | 0.0 | 0.0 | 0.00 | 0.00 | 0.00 | 86 | |
| 20260509045414 | 60 | 268 | 0.0 | 0.0 | 0.00 | 0.00 | 0.00 | 86 | |
| 20260509045011 | 60 | 268 | 0.0 | 0.0 | 0.00 | 0.00 | 0.00 | 86 | |
| 20260509044809 | 60 | 268 | 0.0 | 0.0 | 0.00 | 0.00 | 0.00 | 86 | |
| 20260509044405 | 60 | 268 | 0.0 | 0.0 | 0.00 | 0.00 | 0.00 | 86 | |
| 20260509044203 | 60 | 268 | 0.0 | 0.0 | 0.00 | 0.00 | 0.00 | 85 | |
| 20260509044001 | 60 | 268 | 0.0 | 0.0 | 0.00 | 0.00 | 0.00 | 85 | |
| 20260509043759 | 60 | 268 | 0.0 | 0.0 | 0.00 | 0.00 | 0.00 | 85 | |
| 20260509043557 | 60 | 268 | 0.0 | 0.0 | 0.00 | 0.00 | 0.00 | 85 | |
| 20260509043355 | 60 | 268 | 0.0 | 0.0 | 0.00 | 0.00 | 0.00 | 85 | |
| 20260509043153 | 60 | 268 | 0.0 | 0.0 | 0.00 | 0.00 | 0.00 | 85 | |
| 20260509042951 | 60 | 268 | 0.0 | 0.0 | 0.00 | 0.00 | 0.00 | 85 | |
| 20260509042751 | 60 | 268 | 0.0 | 0.0 | 0.00 | 0.00 | 0.00 | 85 | |
| 20260509042546 | 60 | 268 | 0.0 | 0.0 | 0.00 | 0.00 | 0.00 | 84 | |
| 20260509042144 | 60 | 268 | 0.0 | 0.0 | 0.00 | 0.00 | 0.00 | 84 | |
| 20260509041740 | 60 | 268 | 0.0 | 0.0 | 0.00 | 0.00 | 0.00 | 84 | |
| 20260509041538 | 60 | 268 | 0.0 | 0.0 | 0.00 | 0.00 | 0.00 | 84 | |
| 20260509041336 | 60 | 268 | 0.0 | 0.0 | 0.00 | 0.00 | 0.00 | 84 | |
| 20260509041134 | 60 | 268 | 0.0 | 0.0 | 0.00 | 0.00 | 0.00 | 83 | |
| 20260509040931 | 61 | 268 | 0.0 | 0.0 | 0.00 | 0.00 | 0.00 | 83 | |
| 20260509040731 | 61 | 268 | 0.0 | 0.0 | 0.00 | 0.00 | 0.00 | 83 | |
| 20260509040529 | 61 | 268 | 0.0 | 0.0 | 0.00 | 0.00 | 0.00 | 83 | |
| 20260509040327 | 61 | 268 | 0.0 | 0.0 | 0.00 | 0.00 | 0.00 | 83 | |
| 20260509040123 | 61 | 268 | 0.0 | 0.0 | 0.00 | 0.00 | 0.00 | 83 | |
| 20260509035923 | 61 | 268 | 0.0 | 0.0 | 0.00 | 0.00 | 0.00 | 83 | |
| 20260509035720 | 61 | 268 | 0.0 | 0.0 | 0.00 | 0.00 | 0.00 | 83 | |
| 20260509035519 | 61 | 268 | 0.0 | 0.0 | 0.00 | 0.00 | 0.00 | 84 | |
| 20260509035317 | 61 | 268 | 0.0 | 0.0 | 0.00 | 0.00 | 0.00 | 83 | |
| 20260509035115 | 61 | 268 | 0.0 | 0.0 | 0.00 | 0.00 | 0.00 | 83 | |
| 20260509034711 | 61 | 268 | 0.0 | 2.6 | 0.00 | 0.00 | 0.00 | 83 | |
| 20260509034509 | 61 | 268 | 0.0 | 2.6 | 0.00 | 0.00 | 0.00 | 84 | |
| 20260509034106 | 61 | 275 | 0.9 | 2.6 | 0.00 | 0.00 | 0.00 | 83 | |
| 20260509033903 | 61 | 295 | 2.6 | 2.6 | 0.00 | 0.00 | 0.00 | 83 | |
| 20260509033257 | 61 | 257 | 0.0 | 0.9 | 0.00 | 0.00 | 0.00 | 83 | |
| 20260509033056 | 61 | 257 | 0.0 | 0.9 | 0.00 | 0.00 | 0.00 | 83 | |
| 20260509032853 | 61 | 257 | 0.0 | 0.9 | 0.00 | 0.00 | 0.00 | 83 | |
| 20260509032250 | 61 | 272 | 0.9 | 4.3 | 0.00 | 0.00 | 0.00 | 83 | |
| 20260509032046 | 62 | 274 | 1.7 | 4.3 | 0.00 | 0.00 | 0.00 | 83 | |
| 20260509031844 | 62 | 277 | 1.7 | 4.3 | 0.00 | 0.00 | 0.00 | 83 | |
| 20260509031440 | 62 | 293 | 2.6 | 4.3 | 0.00 | 0.00 | 0.00 | 82 | |
| 20260509030835 | 62 | 296 | 1.7 | 4.3 | 0.00 | 0.00 | 0.00 | 82 | |
| 20260509030633 | 62 | 282 | 1.7 | 5.2 | 0.00 | 0.00 | 0.00 | 82 | |
| 20260509030229 | 62 | 286 | 2.6 | 5.2 | 0.00 | 0.00 | 0.00 | 82 | |
| 20260509030027 | 62 | 279 | 3.5 | 5.2 | 0.00 | 0.00 | 0.00 | 81 | |
| 20260509025826 | 62 | 284 | 3.5 | 5.2 | 0.00 | 0.00 | 0.00 | 81 | |
| 20260509025624 | 62 | 298 | 3.5 | 4.3 | 0.00 | 0.00 | 0.00 | 81 | |
| 20260509025422 | 62 | 281 | 4.3 | 4.3 | 0.00 | 0.00 | 0.00 | 81 | |
| 20260509025220 | 63 | 288 | 2.6 | 5.2 | 0.00 | 0.00 | 0.00 | 80 | |
| 20260509025018 | 63 | 288 | 2.6 | 5.2 | 0.00 | 0.00 | 0.00 | 80 | |
| 20260509024614 | 63 | 295 | 2.6 | 4.3 | 0.00 | 0.00 | 0.00 | 80 | |
| 20260509024211 | 63 | 288 | 3.5 | 4.3 | 0.00 | 0.00 | 0.00 | 79 | |
| 20260509024009 | 63 | 298 | 2.6 | 4.3 | 0.00 | 0.00 | 0.00 | 79 | |
| 20260509023806 | 63 | 286 | 2.6 | 4.3 | 0.00 | 0.00 | 0.00 | 79 | |
| 20260509023604 | 64 | 296 | 2.6 | 4.3 | 0.00 | 0.00 | 0.00 | 79 | |
| 20260509023402 | 63 | 286 | 0.9 | 4.3 | 0.00 | 0.00 | 0.00 | 78 |